Location: Burleson Alternative School
(32.5290°N, 97.3406°W)
Time: 08:01:41
(UTC+00:00)

Transit 2A Rocket - Pass Details

Date: 19 November 2024
Orbit: 586 x 903 km, 66.7° (Epoch: 06 December)

Event Time Altitude Azimuth Distance (km) Brightness Sun altitude
Rises 00:50:40 0° 309° (NW) 3,074 8.7 -17.7°
Reaches altitude 10° 00:54:35 10° 278° (W) 2,073 8.3 -18.5°
Maximum altitude 00:56:14 12° 257° (WSW) 1,926 8.3 -18.8°
Drops below altitude 10° 00:57:49 10° 236° (WSW) 2,010 8.2 -19.2°
Sets 01:01:29 0° 204° (SSW) 2,855 8.5 -19.9°
